User: anonymous   Login
Location: Lac de la Montange Noire
(46.1952°N, 74.2701°W)
Time: 06:35:04
(UTC-04:00)
Language:

Iridium 42 - Orbit

View from above orbital plane
View from above orbital plane
View from above satellite
View from above satellite

Ground track
Ground track

The orbit data is extracted from the following two-line orbital elements,

1 25077U 97077A   17206.55352244 +.00000048 +00000-0 +98416-5 0  9992
2 25077 086.3971 005.8568 0002486 101.6594 258.4881 14.34516576027686
Epoch (UTC): 25 July 2017 13:17:04
Eccentricity: 0.0002486
inclination: 86.3971°
perigee height: 775 km
apogee height: 778 km
right ascension of ascending node: 5.8568°
argument of perigee: 101.6594°
revolutions per day: 14.34516576
mean anomaly at epoch: 258.4881°
orbit number at epoch: 2768

The dashed part of the orbit path shows where the satellite is in the earth's shadow,  

DLR